Regional Weather Roundup
Issued by NWS

Home | Current Version | Previous Version | Text Only | Print | Product List | Glossary On
Versions: 1 2 3 4 5 6 7 8 9 10 11 12 13 14 15 16 17 18 19 20 21 22 23 24 25 26 27 28 29 30 31 32 33 34 35 36 37 38 39 40 41 42 43 44 45 46 47 48 49 50
000
ASUS44 KJAN 221503
RWRMS

MISSISSIPPI HOURLY WEATHER ROUNDUP
NATIONAL WEATHER SERVICE JACKSON MS
900 AM CST MON DEC 22 2014

NOTE: "FAIR: INDICATES FEW OR NO CLOUDS BELOW 12,000 FEET WITH NO
SIGNIFICANT WEATHER AND/OR OBSTRUCTIONS TO VISIBILITY.

MSZ001>002-007>008-010>013-018>021-025>028-034>036-221600-
NORTHWEST MISSISSIPPI

CITY           SKY/WX    TMP DP  RH WIND       PRES   REMARKS
CLARKSDALE     CLOUDY    52  52 100 SE10      29.82F
CLEVELAND      CLOUDY    52  52 100 S10       29.80F FOG
GREENWOOD      CLOUDY    55  51  86 S5        29.84S
GREENVILLE     CLOUDY    53  51  93 S8        29.80F FOG
GRENADA        CLOUDY    52  50  93 E5        29.85S FOG
OLIVE BRANCH   CLOUDY    48  48 100 SE8       29.83F FOG
OXFORD         CLOUDY    48  48 100 S8        29.86S FOG
TUNICA         CLOUDY    50  50 100 SE10      29.82F FOG
$$

MSZ003>006-009-014>017-022>024-029>033-037>039-221600-
NORTHEAST MISSISSIPPI

CITY           SKY/WX    TMP DP  RH WIND       PRES   REMARKS
COLUMBUS AFB   CLOUDY    54  50  87 SE10      29.86F
CORINTH        CLOUDY    52  48  87 MISG      29.85F
GOLDN TRIANGLE LGT RAIN  52  48  87 SE13      29.85F FOG
STARKVILLE     LGT RAIN  50  50 100 SE6       29.87R
TUPELO         CLOUDY    52  49  89 S9        29.86F
$$

MSZ040-058-221600-
CENTRAL MISSISSIPPI

CITY           SKY/WX    TMP DP  RH WIND       PRES   REMARKS
JACKSON INTL   FOG       55  54  96 SE12      29.83F VSB 1
JACKSON HAWKNS FOG       54  54 100 SE8       29.83F VSB 3/4
MERIDIAN KEY   CLOUDY    54  53  97 SE6       29.88R
MERIDIAN NAS   CLOUDY    52  51  97 SE8       29.89S FOG
RAYMOND        CLOUDY    55  50  82 SE6       29.83S HAZE
VICKSBURG      FOG       55  54  96 SE8       29.82S VSB 1
$$

MSZ059>079-221600-
SOUTH MISSISSIPPI

CITY           SKY/WX    TMP DP  RH WIND       PRES   REMARKS
HATTIESBURG    FOG       56  56 100 SE5       29.87S VSB 3/4
MCCOMB         FOG       57  56  96 SE5       29.83F VSB 1/4
NATCHEZ        CLOUDY    57  55  94 S5        29.82S
PINE BELT      CLOUDY    55  54  94 SE6       29.87R VSB 1/4
$$

MSZ080>082-221600-
COASTAL MISSISSIPPI

CITY           SKY/WX    TMP DP  RH WIND       PRES   REMARKS
BILOXI         PTSUNNY   63  63 100 E6        29.86S
PASCAGOULA     CLOUDY    60  59  96 E6        29.87S
GULFPORT       LGT RAIN  61  60  97 E7        29.85F FOG
$$


USA.gov is the U.S. government's official web portal to all federal, state and local government web resources and services.